This is the latest recevied weather packets stored in our database for station/object N6XE. If no packets are shown the sender has not sent any weather packets the latest 10 day(s).
| Time | Temp. | Humidity | Pressure | Rain* | Wind** | Luminosity | Snow |
|---|---|---|---|---|---|---|---|
| 1777892718 | 13.33° C | 82% | 1016.9 hPa | 0 mm | - | - | - |
| 1777892122 | 13.33° C | 82% | 1016.9 hPa | 0 mm | - | - | - |
| 1777888531 | 13.89° C | 81% | 1017.1 hPa | 0 mm | - | - | - |
| 1777885536 | 13.89° C | 82% | 1017 hPa | 0 mm | - | - | - |
| 1777884920 | 13.89° C | 82% | 1017.1 hPa | 0 mm | - | - | - |
| 1777882540 | 13.89° C | 83% | 1017.3 hPa | 0 mm | - | - | - |
| 1777880720 | 13.89° C | 80% | 1017 hPa | 0 mm | - | - | - |
| 1777878332 | 13.89° C | 79% | 1016.9 hPa | 0 mm | - | - | - |
| 1777877123 | 13.89° C | 80% | 1016.9 hPa | 0 mm | - | - | - |
| 1777850118 | 22.22° C | 54% | 1013.8 hPa | 0 mm | - | - | - |
| 1777847122 | 22.78° C | 54% | 1014.1 hPa | 0 mm | - | - | - |
| 1777845930 | 22.78° C | 54% | 1014.4 hPa | 0 mm | - | - | - |
| 1777843529 | 21.67° C | 57% | 1014.7 hPa | 0 mm | - | - | - |
| 1777841725 | 22.22° C | 57% | 1014.7 hPa | 0 mm | - | - | - |
| 1777837519 | 21.67° C | 56% | 1014.9 hPa | 0 mm | - | - | - |
| 1777831518 | 20.56° C | 59% | 1015.1 hPa | 0 mm | - | - | - |
| 1777828542 | 18.33° C | 67% | 1015.1 hPa | 0 mm | - | - | - |
| 1777827925 | 17.78° C | 68% | 1015.1 hPa | 0 mm | - | - | - |
| 1777826120 | 16.67° C | 75% | 1015 hPa | 0 mm | - | - | - |
| 1777821932 | 15° C | 83% | 1014.5 hPa | 0 mm | - | - | - |
| 1777817165 | 12.78° C | 90% | 1013.7 hPa | 0 mm | - | - | - |
| 1777814718 | 12.22° C | 90% | 1013 hPa | 0 mm | - | - | - |
| 1777814157 | 12.78° C | 90% | 1012.9 hPa | 0 mm | - | - | - |
| 1777811716 | 12.78° C | 90% | 1012.7 hPa | 0 mm | - | - | - |
| 1777810544 | 12.22° C | 92% | 1012.5 hPa | 0 mm | - | - | - |
* Rain latest hour (hover to see other rain measurements)
** Current wind speed in m/s (hover to see current wind gust speed)